Location: Blue Mountain Vista Observatory
(40.6992°N, 75.9422°W)
Time: 05:44:37
(UTC-05:00)

IDEFIX/ARIANE 42P - Visible Passes

Search period start: 11 February 2016 00:00
Search period end: 21 February 2016 00:00
Orbit: 786 x 802 km, 98.2° (Epoch: 11 February)

Date Brightness Start Highest point End Pass type
(mag) Time Alt. Az. Time Alt. Az. Time Alt. Az.
11 Feb 5.8 05:54:14 10° ENE 05:56:56 14° E 05:59:36 10° ESE visible
11 Feb 3.6 18:50:05 10° S 18:55:10 50° W 19:00:18 10° NNW visible
12 Feb 2.6 18:21:34 10° SSE 18:26:50 90° ENE 18:32:08 10° NNW visible
12 Feb 5.9 20:06:32 10° W 20:07:07 10° W 20:07:42 10° W visible
13 Feb 2.8 17:53:34 10° SE 17:58:37 50° ENE 18:03:42 10° N visible
13 Feb 5.2 19:34:42 10° SW 19:38:28 20° W 19:42:17 10° NW visible
14 Feb 5.6 06:08:03 10° NE 06:11:49 20° E 06:15:33 10° SE visible
14 Feb 4.2 19:05:09 10° SSW 19:09:57 36° W 19:14:48 10° NNW visible
15 Feb 3.1 18:36:20 10° S 18:41:33 66° WSW 18:46:49 10° NNW visible
16 Feb 2.6 18:08:03 10° SSE 18:13:16 69° ENE 18:18:32 10° N visible
16 Feb 5.7 19:50:38 10° WSW 19:53:22 14° W 19:56:07 10° WNW visible
17 Feb 5.1 06:22:14 10° NE 06:26:40 27° E 06:31:03 10° SSE visible
17 Feb 4.8 19:20:26 10° SSW 19:24:46 26° W 19:29:10 10° NW visible
18 Feb 5.8 05:55:13 10° ENE 05:58:05 15° E 06:00:56 10° ESE visible
18 Feb 3.7 18:51:15 10° S 18:56:19 47° W 19:01:25 10° NNW visible
19 Feb 2.7 18:22:42 10° SSE 18:27:58 86° WSW 18:33:17 10° NNW visible
20 Feb 5.3 19:35:58 10° SW 19:39:37 19° W 19:43:19 10° NW visible
